sat.trackr.live / text

‹ back to catalog

STARLINK-36755

NORAD 67726 · 2026-026F

PAYLOAD ACTIVE UNKNOWN

§ Identity

Operator
Country
US
Launch date
2026-02-11
Launch site
AFWTR
Launch vehicle
Mass (kg)
RCS (m²)

Purposes: comms

External: N2YO · Heavens-Above · Gunter

§ Orbital elements

Epoch: 2026-05-25T02:23:12.797088Z

Period
93.91 min
Inclination
97.2825°
Eccentricity
0.0000696
Mean motion
15.33450458 rev/d
Perigee alt
465.1 km
Apogee alt
466.0 km
Semi-major
6,843.7 km
B*
5.3924e-4
RAAN
198.5863°
Arg perigee
156.3615°
Mean anomaly
203.7660°
Rev number
1,583

§ Raw data

STARLINK-367551 67726U 26026F   26145.09945367  .00017377  00000+0  53924-3 0  99952 67726  97.2825 198.5863 0000696 156.3615 203.7660 15.33450458 15830

JSON: /api/v1/satellites/67726 · /tle

For live sub-satellite position, see the globe view (requires WebGL).

§ Visibility from observer

Set your observer location to see the next 7 days of passes ≥ 10°. The values pass through the URL so the page stays shareable.

No JS? Fill the form by hand. The geolocation button needs JavaScript.